Home > Weather > Radebeul > Past weeks

Flag for Germany Weather for the Past 2 Weeks in Radebeul, Saxony, Germany

Now
70 °F

Sunny.


Feels Like: 70 °F
Forecast: 49 / 71 °F
Wind: 12 mph from East

Location: Dresden-Klotzsche

Current Time: May 6, 2016 at 3:43:25 PM

Latest Report: May 6, 2016 at 3:20 PM


Visibility: 10 mi

Pressure: 30.07 "Hg

Humidity: 35%

Dew Point: 41 °F

Location of RadebeulLocation

Historic Weather in Radebeul — Graph

°F

Radebeul Temperature Yesterday

Maximum temperature yesterday: 63 °F (at 3:50 PM)
Minimum temperature yesterday: 39 °F (at 5:20 AM)
Average temperature yesterday: 52 °F

High & Low Weather Summary for the Past Weeks

 TemperatureHumidityPressure
High70 °F (May 6, 1:20 PM)100% (May 3, 4:20 AM)30.36 "Hg (May 3, 4:20 AM)
Low32 °F (Apr 24, 5:50 AM)25% (Apr 30, 2:20 PM)29.47 "Hg (Apr 26, 7:50 AM)
Average46 °F66%29.99 "Hg
* Reported Apr 21 2:20 PM — May 6 2:20 PM, Radebeul, Weather by CustomWeather, © 2016

Note: Actual official high and low records may vary slightly from our data, if they occured in-between our weather recording intervals... More about our weather records

Advertising

Radebeul Weather History for the Previous 24 Hours

Scroll right to see more
 ConditionsComfort  
Time TempWeatherWind HumidityBarometerVisibility
2:20 PM
Fri, May 6
70 °FPassing clouds.13 mph40%30.09 "HgN/A
1:50 PM70 °FPassing clouds.13 mph33%30.09 "HgN/A
1:20 PM70 °FPassing clouds.12 mph38%30.12 "HgN/A
12:50 PM68 °FPassing clouds.10 mph40%30.12 "HgN/A
12:20 PM68 °FPassing clouds.10 mph43%30.12 "HgN/A
11:50 AM66 °FPassing clouds.9 mph43%30.15 "HgN/A
11:20 AM66 °FPassing clouds.7 mph40%30.15 "HgN/A
10:50 AM66 °FPassing clouds.7 mph43%30.15 "HgN/A
10:20 AM64 °FPassing clouds.7 mph46%30.15 "HgN/A
9:50 AM63 °FPassing clouds.8 mph49%30.15 "HgN/A
9:20 AM63 °FPassing clouds.7 mph52%30.15 "HgN/A
8:50 AM59 °FPassing clouds.7 mph55%30.18 "HgN/A
8:20 AM57 °FSunny.6 mph59%30.18 "Hg10 mi
7:50 AM55 °FSunny.3 mph63%30.18 "Hg10 mi
7:20 AM50 °FSunny.7 mph82%30.18 "Hg10 mi
6:50 AM46 °FSunny.6 mph93%30.15 "Hg10 mi
6:20 AM45 °FClear.6 mph93%30.15 "Hg10 mi
5:50 AM48 °FClear.7 mph76%30.15 "Hg10 mi
5:20 AM48 °FClear.3 mph82%30.15 "Hg10 mi
4:50 AM50 °FClear.5 mph76%30.18 "Hg10 mi
4:20 AM50 °FClear.7 mph76%30.18 "Hg10 mi
3:50 AM50 °FClear.6 mph76%30.18 "Hg10 mi
3:20 AM50 °FClear.5 mph76%30.18 "Hg10 mi
2:50 AM48 °FClear.2 mph82%30.18 "Hg10 mi
2:20 AM50 °FClear.1 mph76%30.21 "Hg10 mi
1:50 AM50 °FClear.2 mph76%30.21 "Hg10 mi
1:20 AM50 °FClear.2 mph76%30.21 "Hg10 mi
12:50 AM50 °FClear.3 mph76%30.21 "Hg10 mi
12:20 AM52 °FClear.3 mph72%30.21 "Hg10 mi
11:50 PM
Thu, May 5
52 °FClear.2 mph77%30.21 "Hg10 mi
11:20 PM54 °FClear.2 mph72%30.21 "Hg10 mi
10:50 PM55 °FClear.5 mph67%30.21 "Hg10 mi
10:20 PM54 °FClear.5 mph72%30.21 "Hg10 mi
9:50 PM55 °FClear.7 mph72%30.21 "Hg10 mi
9:20 PM55 °FSunny.6 mph67%30.21 "Hg10 mi
8:50 PM57 °FSunny.5 mph63%30.21 "Hg10 mi
8:20 PM59 °FSunny.6 mph59%30.21 "Hg10 mi
7:50 PM59 °FSunny.7 mph59%30.21 "Hg10 mi
7:20 PM61 °FSunny.10 mph55%30.24 "Hg10 mi
6:50 PM63 °FPassing clouds.10 mph52%30.24 "HgN/A
6:20 PM63 °FPassing clouds.9 mph52%30.24 "HgN/A
5:50 PM63 °FPassing clouds.10 mph52%30.24 "HgN/A
5:20 PM63 °FPassing clouds.12 mph52%30.27 "HgN/A
4:50 PM63 °FPassing clouds.10 mph52%30.27 "HgN/A
4:20 PM63 °FPassing clouds.12 mph52%30.27 "HgN/A
3:50 PM63 °FPassing clouds.10 mph52%30.27 "HgN/A
3:20 PM61 °FPassing clouds.9 mph52%30.30 "HgN/A
Weather by CustomWeather, © 2016

See weather overviewHow to use our weather pages